Location: Lane
(33.5226°N, 79.8788°W)
Time: 12:49:02
(UTC+00:00)

Explorer 7 - Pass Details

Date: 09 October 2022
Orbit: 481 x 665 km, 50.3° (Epoch: 26 November)

Event Time Altitude Azimuth Distance (km) Brightness Sun altitude
Rises 21:34:28 0° 292° (WNW) 2,903 11.3 15.2°
Reaches altitude 10° 21:37:41 10° 270° (W) 1,954 11.4 14.5°
Maximum altitude 21:40:15 15° 235° (SW) 1,609 11.1 14.0°
Drops below altitude 10° 21:42:44 10° 199° (SSW) 1,879 10.2 13.5°
Sets 21:45:44 0° 176° (S) 2,727 10.5 12.9°
